Timberlake, NC

6:11 AM EST on December 03, 2016 (GMT -0500)
Person County

Weather History for KTDF - April, 2014

Change the Weather History Date:

Friday, April 25, 2014

  Actual Average Record
Temperature  
Mean Temperature 60 °F -  
Max Temperature 77 °F 73 °F 92 °F (1960)
Min Temperature 44 °F 46 °F 31 °F (1967)
Degree Days  
Heating Degree Days 4    
Growing Degree Days 10 (Base 50)    
Moisture  
Dew Point 53 °F    
Average Humidity 83    
Maximum Humidity 100    
Minimum Humidity 54    
Precipitation  
Precipitation 0.95 in - - ()
Sea Level Pressure  
Sea Level Pressure 29.87 in    
Wind  
Wind Speed 3 mph (SSW)    
Max Wind Speed 15 mph    
Max Gust Speed 22 mph    
Visibility 9 miles    
Events Rain , Thunderstorm    
Averages and records for this station are not official NWS values.
T = Trace of Precipitation, MM = Missing Value Source: NWS Daily Summary

Daily Weather History Graph

Daily Weather History Graph

Search for Another Location

Airport or City:

Trip Planner

Search our weather history database for the weather conditions in past years. The results will help you decide how hot, cold, wet, or windy it might be!

Date:

Astronomy

Apr. 25, 2014 Rise Set
Actual Time 6:29 AM EDT 7:58 PM EDT
Civil Twilight 6:02 AM EDT 8:25 PM EDT
Nautical Twilight 5:30 AM EDT 8:58 PM EDT
Astronomical Twilight 4:55 AM EDT 9:32 PM EDT
Moon 4:09 AM EDT (4/25) 4:25 PM EDT (4/25)
Length of Visible Light 14h 23m
Length of Day
13h 28m
Waning Crescent, 15% of the Moon is Illuminated
Apr 25
Waning Crescent
Apr 29
New
May 6
First Quarter
May 14
Full
May 21
Last Quarter

Hourly Weather History & Observations

Time (EDT) Temp. Windchill Dew Point Humidity Pressure Visibility Wind Dir Wind Speed Gust Speed Precip Events Conditions
12:15 AM 50.0 °F - 41.0 °F 71% 30.02 in 10.0 mi Calm Calm - N/A   Clear
12:35 AM 48.2 °F - 41.0 °F 76% 30.02 in 10.0 mi ESE 3.5 mph - N/A   Clear
12:55 AM 50.0 °F - 41.0 °F 71% 30.01 in 10.0 mi Calm Calm - N/A   Clear
1:15 AM 51.8 °F - 41.0 °F 67% 30.00 in 10.0 mi SSE 3.5 mph - N/A   Clear
1:35 AM 53.6 °F - 39.2 °F 58% 30.00 in 10.0 mi Calm Calm - N/A   Clear
1:55 AM 51.8 °F - 39.2 °F 62% 29.99 in 10.0 mi Calm Calm - N/A   Clear
2:15 AM 51.8 °F - 39.2 °F 62% 29.99 in 10.0 mi Calm Calm - N/A   Clear
2:35 AM 48.2 °F - 41.0 °F 76% 29.98 in 10.0 mi Calm Calm - N/A   Clear
2:55 AM 46.4 °F - 41.0 °F 81% 29.99 in 10.0 mi Calm Calm - N/A   Clear
3:15 AM 46.4 °F - 41.0 °F 81% 29.99 in 10.0 mi Calm Calm - N/A   Clear
3:35 AM 44.6 °F - 41.0 °F 87% 30.00 in 10.0 mi Calm Calm - N/A   Clear
3:55 AM 44.6 °F - 42.8 °F 93% 30.00 in 10.0 mi Calm Calm - N/A   Clear
4:15 AM 44.6 °F 43.1 °F 41.0 °F 87% 29.99 in 10.0 mi ESE 3.5 mph - N/A   Clear
4:35 AM 44.6 °F - 41.0 °F 87% 29.98 in 10.0 mi Calm Calm - N/A   Clear
4:55 AM 46.4 °F - 41.0 °F 81% 29.98 in 10.0 mi Calm Calm - N/A   Clear
5:15 AM 46.4 °F - 41.0 °F 81% 29.98 in 10.0 mi Calm Calm - N/A   Clear
5:35 AM 46.4 °F - 41.0 °F 81% 29.98 in 10.0 mi Calm Calm - N/A   Clear
5:55 AM 44.6 °F - 41.0 °F 87% 29.98 in 10.0 mi Calm Calm - N/A   Clear
6:15 AM 46.4 °F - 42.8 °F 87% 29.99 in 10.0 mi Calm Calm - N/A   Scattered Clouds
6:35 AM 44.6 °F - 41.0 °F 87% 29.98 in 10.0 mi Calm Calm - N/A   Clear
6:55 AM 44.6 °F - 42.8 °F 93% 29.98 in 10.0 mi Calm Calm - N/A   Clear
7:15 AM 46.4 °F - 44.6 °F 93% 29.97 in 10.0 mi Calm Calm - N/A   Mostly Cloudy
7:35 AM 50.0 °F - 46.4 °F 87% 29.97 in 10.0 mi Calm Calm - N/A   Mostly Cloudy
7:55 AM 51.8 °F - 48.2 °F 88% 29.96 in 10.0 mi SSE 3.5 mph - N/A   Mostly Cloudy
8:15 AM 53.6 °F - 50.0 °F 88% 29.95 in 10.0 mi SSE 4.6 mph - N/A   Overcast
8:35 AM 53.6 °F - 51.8 °F 94% 29.96 in 10.0 mi SSE 3.5 mph - N/A   Overcast
8:55 AM 55.4 °F - 51.8 °F 88% 29.95 in 10.0 mi SSE 4.6 mph - N/A   Overcast
9:15 AM 57.2 °F - 53.6 °F 88% 29.95 in 10.0 mi South 3.5 mph - N/A   Overcast
9:35 AM 59.0 °F - 53.6 °F 82% 29.94 in 10.0 mi South 5.8 mph - N/A   Overcast
9:55 AM 60.8 °F - 55.4 °F 82% 29.93 in 10.0 mi South 5.8 mph - N/A   Overcast
10:15 AM 64.4 °F - 57.2 °F 77% 29.92 in 10.0 mi South 6.9 mph - N/A   Scattered Clouds
10:35 AM 64.4 °F - 59.0 °F 83% 29.92 in 10.0 mi SSE 8.1 mph - N/A   Mostly Cloudy
10:55 AM 68.0 °F - 59.0 °F 73% 29.92 in 10.0 mi South 9.2 mph - N/A   Overcast
11:15 AM 66.2 °F - 59.0 °F 78% 29.91 in 10.0 mi South 6.9 mph - N/A   Overcast
11:35 AM 68.0 °F - 60.8 °F 78% 29.89 in 10.0 mi SSE 8.1 mph - N/A   Overcast
11:55 AM 69.8 °F - 60.8 °F 73% 29.88 in 10.0 mi South 15.0 mph 18.4 mph N/A   Mostly Cloudy
12:15 PM 71.6 °F - 60.8 °F 69% 29.87 in 10.0 mi South 6.9 mph 16.1 mph N/A   Scattered Clouds
12:35 PM 71.6 °F - 60.8 °F 69% 29.85 in 10.0 mi South 11.5 mph 19.6 mph N/A Thunderstorm Scattered Clouds
12:55 PM 73.4 °F - 60.8 °F 65% 29.83 in 10.0 mi South 12.7 mph 19.6 mph N/A   Mostly Cloudy
1:15 PM 73.4 °F - 60.8 °F 65% 29.79 in 10.0 mi SSW 13.8 mph 21.9 mph N/A Thunderstorm Scattered Clouds
1:35 PM 77.0 °F - 59.0 °F 54% 29.77 in 10.0 mi South 10.4 mph 21.9 mph N/A Thunderstorm Scattered Clouds
1:55 PM 73.4 °F - 59.0 °F 61% 29.75 in 10.0 mi South 12.7 mph 20.7 mph N/A Rain , Thunderstorm Light Thunderstorms and Rain
2:15 PM 68.0 °F - 60.8 °F 78% 29.78 in 4.0 mi WSW 5.8 mph 19.6 mph 0.06 in Rain , Thunderstorm Heavy Thunderstorms and Rain
2:35 PM 64.4 °F - 62.6 °F 94% 29.76 in 3.0 mi Calm Calm - 0.24 in Rain , Thunderstorm Light Thunderstorms and Rain
2:55 PM 69.8 °F - 66.2 °F 88% 29.75 in 10.0 mi South 3.5 mph - 0.24 in Thunderstorm Thunderstorm
3:15 PM 69.8 °F - 64.4 °F 83% 29.73 in 10.0 mi Calm Calm - N/A Rain , Thunderstorm Light Thunderstorms and Rain
3:35 PM 66.2 °F - 64.4 °F 94% 29.73 in 2.5 mi SW 11.5 mph 17.3 mph 0.13 in Rain , Thunderstorm Thunderstorms and Rain
3:55 PM 64.4 °F - 62.6 °F 94% 29.73 in 10.0 mi Calm Calm - 0.27 in Rain , Thunderstorm Thunderstorms and Rain
4:15 PM 64.4 °F - 64.4 °F 100% 29.71 in 0.8 mi SW 5.8 mph 19.6 mph 0.33 in Rain , Thunderstorm Light Thunderstorms and Rain
4:35 PM 64.4 °F - 62.6 °F 94% 29.69 in 3.0 mi SSE 9.2 mph - 0.41 in Rain , Thunderstorm Heavy Thunderstorms and Rain
4:55 PM 64.4 °F - 62.6 °F 94% 29.72 in 10.0 mi NW 9.2 mph - 0.42 in Rain , Thunderstorm Light Thunderstorms and Rain
5:15 PM 64.4 °F - 62.6 °F 94% 29.72 in 10.0 mi WNW 8.1 mph 16.1 mph 0.01 in Rain , Thunderstorm Light Thunderstorms and Rain
5:35 PM 62.6 °F - 60.8 °F 94% 29.72 in 10.0 mi WNW 4.6 mph - 0.01 in Rain , Thunderstorm Light Thunderstorms and Rain
5:55 PM 62.6 °F - 62.6 °F 100% 29.72 in 10.0 mi Calm Calm - 0.01 in Rain Light Rain
6:15 PM 62.6 °F - 62.6 °F 100% 29.72 in 10.0 mi Calm Calm - N/A Rain , Thunderstorm Light Thunderstorms and Rain
6:35 PM 62.6 °F - 62.6 °F 100% 29.72 in 10.0 mi SW 3.5 mph - 0.01 in Rain Light Rain
6:55 PM 62.6 °F - 62.6 °F 100% 29.72 in 7.0 mi North - - 0.01 in   Overcast
7:15 PM 62.6 °F - 62.6 °F 100% 29.72 in 10.0 mi North - - N/A   Mostly Cloudy
7:35 PM 64.4 °F - 60.8 °F 88% 29.73 in 10.0 mi North - - N/A   Mostly Cloudy
7:55 PM 64.4 °F - 60.8 °F 88% 29.74 in 10.0 mi North - - N/A   Overcast
8:15 PM 62.6 °F - 59.0 °F 88% 29.75 in 10.0 mi West 3.5 mph - N/A   Scattered Clouds
8:35 PM 62.6 °F - 57.2 °F 82% 29.76 in 10.0 mi West 3.5 mph - N/A   Clear
8:55 PM 62.6 °F - 57.2 °F 82% 29.78 in 10.0 mi WSW 4.6 mph - N/A   Mostly Cloudy
9:15 PM 62.6 °F - 55.4 °F 77% 29.79 in 10.0 mi West 5.8 mph - N/A   Overcast
9:35 PM 62.6 °F - 55.4 °F 77% 29.81 in 10.0 mi West 6.9 mph - N/A   Mostly Cloudy
9:55 PM 62.6 °F - 53.6 °F 72% 29.82 in 4.0 mi Calm Calm - N/A   Haze
10:15 PM 60.8 °F - 55.4 °F 82% 29.84 in 5.0 mi Calm Calm - N/A   Haze
10:35 PM 60.8 °F - 53.6 °F 77% 29.84 in 10.0 mi West 3.5 mph - N/A   Clear
10:55 PM 60.8 °F - 53.6 °F 77% 29.85 in 10.0 mi Calm Calm - N/A   Clear
11:15 PM 59.0 °F - 53.6 °F 82% 29.85 in 10.0 mi West 4.6 mph - N/A   Clear
11:35 PM 59.0 °F - 51.8 °F 77% 29.86 in 10.0 mi Calm Calm - N/A   Clear
11:55 PM 55.4 °F - 53.6 °F 94% 29.86 in 10.0 mi Calm Calm - N/A   Clear